Regional Weather Roundup
Issued by NWS Northern Indiana

Home | Current Version | Previous Version | Graphics & Text | Print | Product List | Glossary On
Versions: 1 2 3 4 5 6 7 8 9 10 11 12 13 14 15 16 17 18 19 20 21 22 23 24 25 26 27 28 29 30 31 32 33 34 35 36 37 38 39 40 41 42 43 44 45 46 47 48 49 50
358
ASUS43 KIWX 252300
RWRIWX

KIWX WEATHER ROUNDUP
NATIONAL WEATHER SERVICE NORTHERN INDIANA
700 PM EDT TUE APR 25 2017

NOTE: "FAIR" INDICATES FEW OR NO CLOUDS BELOW 12,000 FEET WITH NO
SIGNIFICANT WEATHER AND/OR OBSTRUCTIONS TO VISIBILITY.

* THESE STATIONS ARE NOT UNDER NWS QUALITY CONTROL. THEY ALSO MAY NOT
  REPORT WEATHER SUCH AS PRECIPITATION OR FOG.

INZ001>027-260000-
NORTHERN INDIANA

CITY           SKY/WX    TMP DP  RH WIND       PRES   REMARKS
GARY*          PTSUNNY   79  43  27 SE14G29   29.56F
MICHIGAN CITY* PTSUNNY   73  52  46 SE7       29.60R
KNOX*          SUNNY     73  27  17 SE16      29.60F
SOUTH BEND     CLOUDY    72  54  53 SE17G23   29.62F
ELKHART*       CLOUDY    72  54  53 SE12      29.62F
GOSHEN         SUNNY     73  53  49 SE15G22   29.63F
MONTICELLO*    SUNNY     75  51  43 S13       29.60S
WARSAW*        MOSUNNY   72  54  53 SE7       29.63F
ANGOLA*        SUNNY     73  55  53 SE12      29.67F
FORT WAYNE     MOSUNNY   75  54  47 SE15      29.64F
HUNTINGTON*    SUNNY     75  54  47 SE9       29.63F

$$
INZ028>050-260000-
CENTRAL INDIANA

CITY           SKY/WX    TMP DP  RH WIND       PRES   REMARKS
LAFAYETTE      SUNNY     75  54  47 S10G22    29.59F
KOKOMO*        MOSUNNY   74  55  51 SE14      29.64F
MUNCIE*        CLOUDY    76  54  46 S9        29.65F
INDIANAPOLIS   PTSUNNY   74  55  51 SE15G21   29.62F

$$
MIZ043>046-050>051-056>058-064>065-071>073-077>080-260000-
SOUTHWEST LOWER MICHIGAN

CITY           SKY/WX    TMP DP  RH WIND       PRES   REMARKS
BATTLE CREEK   MOSUNNY   72  55  55 SE15      29.66F
BENTON HARBOR  MOSUNNY   72  53  51 SE12      29.60F
COLDWATER*     CLOUDY    72  52  48 SE13G18   29.67F
HILLSDALE*     MOSUNNY   70  54  56 SE13      29.69S
HOLLAND        CLOUDY    73  55  53 SE9       29.62F
GRAND RAPIDS   PTSUNNY   72  54  53 SE13      29.64F
KALAMAZOO      MOSUNNY   74  52  46 S9G18     29.64F
STURGIS*       SUNNY     71  55  56 SE12G20   29.64F
THREE RIVERS*  FAIR      72  54  52 SE10      29.65F

$$
OHZ001>008-015>018-024>025-260000-
NORTHWEST OHIO

CITY           SKY/WX    TMP DP  RH WIND       PRES   REMARKS
DEFIANCE       PTSUNNY   75  52  44 S6        29.68F
FINDLAY        MOSUNNY   74  52  46 S10       29.69F
TOLEDO EXPRESS MOSUNNY   65  54  67 NE12      29.71F
TOLEDO METCALF CLOUDY    62  54  74 NE12      29.72F
LIMA           MOSUNNY   75  53  46 S10       29.69F

$$
AND FOR LAKE MICHIGAN COASTAL AND OPEN LAKE BUOY OBSERVATIONS

STATION/POSITION TEMP    WIND        PRES    VSBY  WAVE
                 AIR SEA DIR/SP/G                  HT/PER
                 (F)     (DEG/KT/KT) (MB)    (MI)  (FT/S)
CALUMET HARBOR    78     140/ 10/ 18 1000.3F
MICHIGAN CITY     74     140/ 15/ 18   N/A
BURNS HARBOR      77     170/  9/ 23 1001.7F
SOUTH LAKE BUOY   49 42   70/ 10/ 12 1002.7          1
4 MI NW BRIDGMAN  65 50  160/ 10/ 12 1002.4F         1

$$
&&




USA.gov is the U.S. government's official web portal to all federal, state and local government web resources and services.